Other Surface Observations
Issued by NWS

Home | Current Version | Previous Version | Text Only | Print | Product List | Glossary On
Versions: 1 2 3 4 5 6 7 8 9 10 11 12 13 14 15 16 17 18 19 20 21 22 23 24 25 26 27 28 29 30 31 32 33 34 35 36 37 38 39 40 41 42 43 44 45 46 47 48 49 50
000
SXUS52 KTAE 271018
OSOTAE
OSOTAE
North Florida/South Alabama/Southwest Georgia Weather Roundup
National Weather Service Tallahassee Florida
500 AM EST SAT DEC 27 2014

Note: "fair" indicates few or no clouds below 12,000 feet with no
significant weather and/or obstructions to visibility.

!FLZ017-115-028-034-025-271100
...North Florida...

CITY           SKY/WX    TMP DP  RH WIND       PRES   REMARKS
TALLAHASSEE    CLEAR     45  41  86 CALM      30.23S
APALACHICOLA   CLEAR     53  48  83 NE7       30.21S
PERRY          CLEAR     49  48  95 CALM      30.24R
CROSS CITY       N/A     50  48  93 NE3       30.22S
JACKSONVILLE   PTCLDY    50  50 100 N5        30.23S
$$

!FLZ112-006-005-002-011-271100
...Florida Panhandle...

CITY           SKY/WX    TMP DP  RH WIND       PRES   REMARKS
MARIANNA       CLEAR     46  44  93 E8        30.20F WCI  42
BONIFAY        NOT AVBL
PANAMA CITY NW FAIR      48  42  80 CALM        N/A
TYNDALL AFB    PTCLDY    51  49  91 E8        30.21S
TYND DRONE APT CLOUDY    51  47  87 E6        30.19F
DE FUNIAK SPR  FAIR      47  43  87 E5        30.21S WCI  44
EGLIN AFB      PTCLDY    50  44  78 E5        30.20F
DESTIN         CLEAR     52  44  74 E5        30.20S
HURLBURT       CLEAR     54  42  62 NE2       30.19S
CRESTVIEW      CLEAR     43  42  97 CALM      30.22S
PENSACOLA      CLOUDY    54  47  77 NE5       30.19R
$$

!ALZ063-066-271100
...South Alabama...

CITY           SKY/WX    TMP DP  RH WIND       PRES   REMARKS
DOTHAN         CLEAR     47  41  80 E6        30.25F WCI  44
OZARK CAIRNS   CLEAR     44  39  82 NE5       30.21F WCI  41
FT RUCKER HELI CLEAR     40  38  93 CALM      30.21F
RUCKER HELI 3  FAIR      42  41  96 NE2       30.24F
RUCKER HELI 2  FAIR      46  40  79 E5        30.21F WCI  44
FLORALA APT    CLEAR     44  40  85 E3        30.22F
ANDALUSIA      CLEAR     48  41  76 SE3       30.21F
TROY           CLEAR     41  38  89 CALM      30.23S
EUFALA         FAIR      37  35  92 CALM      30.23F
MOBILE         PTCLDY    55  48  77 E8        30.16F
$$

!GAZ120>161-271100
...Southwest and South Central Georgia...

CITY           SKY/WX    TMP DP  RH WIND       PRES   REMARKS
THOMASVILLE    FAIR      45  45 100 CALM      30.25S
BAINBRIDGE     PTCLDY    45  43  93 E3        30.24R
MOODY AFB      CLEAR     46  43  87 NE2       30.24S
VALDOSTA       CLEAR     46  44  93 CALM      30.24F
MOULTRIE       CLEAR     46  45  93 CALM      30.26S
BLAKELY        CLEAR     41  41 100 CALM      30.25S
ALBANY         CLEAR     41  39  93 CALM      30.26F
TIFTON         FAIR      41  41 100 CALM      30.25S
FITZGERALD     FAIR      42  39  92 CALM      30.29S
CORDELE        FAIR      40  38  94 CALM      30.28S
AMERICUS       FAIR      36  36 100 CALM      30.27F
HOMERVILLE     FAIR      46  46 100 CALM      30.25F
$$

!GMZ750-755-770-775-271100
...Coastal and Buoy Obs...

STATION/POSITION TIME  TEMP    WIND        PRES    VSBY  WAVE
                       AIR SEA DIR/SP/G                  HT/PER
                 (UTC) (F)     (DEG/KT/KT) (MB)    (MI)  (FT/S)
KEATON BEACH     1000   51      60/  6/  8 1023.6R
CEDAR KEY        1000   57      70/  9/  9 1023.2F
C TOWER          1000   60      90/ 15/ 16 1022.5F
APALACHICOLA BUO 1000   67 71   90/ 10/ 12 1021.9F         1/ 3
PANAMA CITY BUOY 0925   69 74  110/ 14/ 17 1021.8F         3/ 5
MOBILE BUOY      1000   70 74  120/ 21/ 23 1019.9S         5/ 6
ORANGE BCH AL BU 1000   67 68  120/ 16/ 19 1020.7F         4/ 5
$$



USA.gov is the U.S. government's official web portal to all federal, state and local government web resources and services.